| time (UTC) | temp F | wind direction | speed MPH | gust MPH | rain 1hr in | rain 24hr in | rain mn in | humidity % | barometer mb |
| 20260503054503 | 51 | 292 | 5.0 | 10.0 | 0.00 | 0.34 | 0.00 | 91 | 1009.8 |
| 20260503053817 | 51 | 287 | 5.0 | 10.0 | 0.00 | 0.34 | 0.00 | 91 | 1009.8 |
| 20260503052918 | 51 | 286 | 4.0 | 10.0 | 0.00 | 0.34 | 0.00 | 92 | 1009.9 |
| 20260503051803 | 51 | 272 | 4.0 | 9.0 | 0.00 | 0.34 | 0.00 | 92 | 1009.7 |
| 20260503050903 | 51 | 292 | 3.0 | 8.0 | 0.00 | 0.34 | 0.00 | 92 | 1009.8 |
| 20260503050003 | 51 | 287 | 4.0 | 8.0 | 0.00 | 0.34 | 0.00 | 92 | 1009.7 |
| 20260503045404 | 50 | 277 | 4.0 | 8.0 | 0.00 | 0.34 | 0.00 | 92 | 1009.8 |
| 20260503044503 | 50 | 283 | 3.0 | 7.0 | 0.00 | 0.34 | 0.00 | 92 | 1009.6 |
| 20260503043603 | 50 | 277 | 3.0 | 7.0 | 0.00 | 0.35 | 0.00 | 92 | 1009.6 |
| 20260503042703 | 50 | 283 | 4.0 | 8.0 | 0.00 | 0.35 | 0.00 | 92 | 1009.6 |
| 20260503041803 | 50 | 280 | 4.0 | 10.0 | 0.00 | 0.35 | 0.00 | 92 | 1009.8 |
| 20260503040903 | 50 | 289 | 5.0 | 9.0 | 0.00 | 0.35 | 0.00 | 92 | 1009.8 |
| 20260503040218 | 50 | 273 | 4.0 | 9.0 | 0.00 | 0.36 | 0.00 | 92 | 1009.9 |
| 20260503035403 | 50 | 262 | 4.0 | 7.0 | 0.00 | 0.36 | 0.00 | 92 | 1009.9 |
| 20260503034503 | 50 | 262 | 4.0 | 8.0 | 0.00 | 0.36 | 0.00 | 91 | 1009.8 |
| 20260503033603 | 50 | 271 | 5.0 | 9.0 | 0.00 | 0.36 | 0.00 | 91 | 1010.0 |
| 20260503032704 | 50 | 288 | 4.0 | 9.0 | 0.00 | 0.36 | 0.00 | 92 | 1009.9 |
| 20260503031803 | 50 | 269 | 5.0 | 10.0 | 0.00 | 0.37 | 0.00 | 91 | 1009.9 |
| 20260503030903 | 50 | 294 | 5.0 | 11.0 | 0.00 | 0.38 | 0.00 | 91 | 1009.9 |
| 20260503030003 | 50 | 272 | 4.0 | 11.0 | 0.00 | 0.40 | 0.00 | 91 | 1009.6 |
| 20260503025403 | 50 | 274 | 5.0 | 13.0 | 0.00 | 0.40 | 0.00 | 91 | 1010.0 |
| 20260503024503 | 50 | 292 | 5.0 | 10.0 | 0.00 | 0.40 | 0.00 | 91 | 1010.0 |
| 20260503023604 | 50 | 292 | 6.0 | 10.0 | 0.00 | 0.40 | 0.00 | 91 | 1010.0 |
| 20260503022703 | 51 | 291 | 6.0 | 11.0 | 0.00 | 0.40 | 0.00 | 91 | 1010.1 |
| 20260503021803 | 51 | 277 | 4.0 | 9.0 | 0.00 | 0.40 | 0.00 | 91 | 1010.0 |
| 20260503020903 | 51 | 263 | 4.0 | 9.0 | 0.00 | 0.40 | 0.00 | 91 | 1010.1 |
| 20260503020003 | 51 | 272 | 4.0 | 9.0 | 0.00 | 0.40 | 0.00 | 91 | 1010.0 |
| 20260503015403 | 51 | 283 | 4.0 | 10.0 | 0.00 | 0.40 | 0.00 | 91 | 1010.2 |
| 20260503014503 | 51 | 285 | 4.0 | 8.0 | 0.00 | 0.40 | 0.00 | 91 | 1010.2 |
| 20260503013603 | 51 | 271 | 4.0 | 9.0 | 0.00 | 0.40 | 0.00 | 91 | 1010.1 |
| 20260503012703 | 51 | 260 | 3.0 | 7.0 | 0.00 | 0.40 | 0.00 | 91 | 1010.2 |
| 20260503011803 | 51 | 277 | 3.0 | 8.0 | 0.00 | 0.40 | 0.00 | 91 | 1010.4 |
| 20260503011118 | 51 | 290 | 4.0 | 8.0 | 0.00 | 0.40 | 0.00 | 91 | 1010.2 |
| 20260503010003 | 51 | 287 | 5.0 | 9.0 | 0.00 | 0.40 | 0.00 | 91 | 1010.2 |
| 20260503005403 | 51 | 286 | 5.0 | 8.0 | 0.00 | 0.40 | 0.00 | 91 | 1010.3 |
| 20260503004503 | 51 | 273 | 4.0 | 7.0 | 0.00 | 0.40 | 0.00 | 91 | 1010.3 |
| 20260503003603 | 51 | 267 | 3.0 | 10.0 | 0.00 | 0.40 | 0.00 | 91 | 1010.2 |
| 20260503002703 | 51 | 290 | 4.0 | 9.0 | 0.00 | 0.40 | 0.00 | 91 | 1010.2 |
| 20260503001803 | 51 | 278 | 4.0 | 9.0 | 0.00 | 0.40 | 0.00 | 91 | 1010.0 |
| 20260503000903 | 51 | 284 | 4.0 | 9.0 | 0.00 | 0.40 | 0.00 | 91 | 1010.1 |
| 20260503000003 | 51 | 280 | 4.0 | 9.0 | 0.00 | 0.40 | 0.00 | 91 | 1010.1 |
| 20260502235403 | 51 | 272 | 4.0 | 9.0 | 0.00 | 0.40 | 0.00 | 91 | 1010.3 |
| 20260502234717 | 51 | 286 | 4.0 | 8.0 | 0.00 | 0.40 | 0.00 | 91 | 1010.3 |
| 20260502233603 | 51 | 312 | 4.0 | 8.0 | 0.00 | 0.40 | 0.00 | 91 | 1010.1 |
| 20260502232703 | 51 | 290 | 5.0 | 9.0 | 0.00 | 0.40 | 0.00 | 91 | 1010.1 |
| 20260502231803 | 51 | 285 | 5.0 | 9.0 | 0.00 | 0.40 | 0.00 | 91 | 1010.3 |
| 20260502230903 | 51 | 283 | 4.0 | 9.0 | 0.00 | 0.40 | 0.00 | 91 | 1010.1 |
| 20260502230004 | 51 | 294 | 5.0 | 8.0 | 0.00 | 0.40 | 0.00 | 91 | 1010.1 |
| 20260502225403 | 52 | 273 | 4.0 | 8.0 | 0.00 | 0.40 | 0.40 | 91 | 1010.1 |
| 20260502224717 | 52 | 263 | 4.0 | 8.0 | 0.00 | 0.40 | 0.40 | 91 | 1010.0 |
| 20260502223818 | 52 | 291 | 3.0 | 8.0 | 0.00 | 0.40 | 0.40 | 91 | 1010.2 |
| 20260502222703 | 52 | 267 | 4.0 | 8.0 | 0.00 | 0.40 | 0.40 | 91 | 1010.2 |
| 20260502221804 | 52 | 288 | 4.0 | 9.0 | 0.00 | 0.40 | 0.40 | 91 | 1009.9 |
| 20260502220904 | 52 | 276 | 4.0 | 8.0 | 0.00 | 0.40 | 0.40 | 90 | 1010.1 |
| 20260502220218 | 52 | 275 | 4.0 | 7.0 | 0.00 | 0.40 | 0.40 | 90 | 1010.1 |
| 20260502215403 | 52 | 260 | 3.0 | 7.0 | 0.00 | 0.40 | 0.40 | 90 | 1010.0 |
| 20260502214503 | 52 | 278 | 4.0 | 10.0 | 0.00 | 0.40 | 0.40 | 90 | 1009.9 |
| 20260502213818 | 52 | 281 | 3.0 | 10.0 | 0.00 | 0.40 | 0.40 | 90 | 1009.9 |
| 20260502212703 | 52 | 286 | 3.0 | 7.0 | 0.00 | 0.40 | 0.40 | 90 | 1010.1 |
| 20260502211803 | 52 | 268 | 4.0 | 8.0 | 0.00 | 0.40 | 0.40 | 90 | 1010.0 |
| 20260502210903 | 52 | 288 | 3.0 | 7.0 | 0.00 | 0.40 | 0.40 | 91 | 1009.9 |
| 20260502210003 | 52 | 288 | 2.0 | 4.0 | 0.00 | 0.40 | 0.40 | 90 | 1009.9 |
| 20260502205403 | 52 | 283 | 2.0 | 4.0 | 0.00 | 0.40 | 0.40 | 90 | 1010.0 |
| 20260502204503 | 52 | 286 | 2.0 | 4.0 | 0.00 | 0.40 | 0.40 | 90 | 1009.9 |
| 20260502203603 | 52 | 280 | 2.0 | 7.0 | 0.00 | 0.40 | 0.40 | 90 | 1009.9 |
| 20260502202703 | 52 | 274 | 2.0 | 4.0 | 0.00 | 0.40 | 0.40 | 90 | 1009.7 |
| 20260502201803 | 53 | 282 | 2.0 | 6.0 | 0.00 | 0.40 | 0.40 | 90 | 1009.9 |
| 20260502200903 | 53 | 274 | 3.0 | 7.0 | 0.00 | 0.40 | 0.40 | 90 | 1009.6 |
| 20260502200003 | 53 | 277 | 2.0 | 6.0 | 0.00 | 0.40 | 0.40 | 89 | 1009.4 |
| 20260502195617 | 53 | 270 | 2.0 | 7.0 | 0.00 | 0.40 | 0.40 | 89 | 1009.5 |
| 20260502194503 | 53 | 276 | 3.0 | 6.0 | 0.00 | 0.40 | 0.40 | 88 | 1009.6 |
| 20260502193603 | 53 | 279 | 3.0 | 7.0 | 0.00 | 0.40 | 0.40 | 88 | 1009.5 |
| 20260502192917 | 53 | 277 | 3.0 | 7.0 | 0.00 | 0.40 | 0.40 | 88 | 1009.4 |
| 20260502191803 | 54 | 286 | 3.0 | 6.0 | 0.00 | 0.40 | 0.40 | 87 | 1009.2 |
| 20260502190903 | 54 | 281 | 3.0 | 8.0 | 0.00 | 0.40 | 0.40 | 87 | 1009.4 |
| 20260502190004 | 54 | 277 | 4.0 | 8.0 | 0.00 | 0.40 | 0.40 | 86 | 1009.3 |
| 20260502185403 | 54 | 273 | 5.0 | 8.0 | 0.00 | 0.40 | 0.40 | 86 | 1009.4 |
| 20260502184503 | 54 | 296 | 5.0 | 8.0 | 0.00 | 0.40 | 0.40 | 85 | 1009.2 |
| 20260502183603 | 54 | 272 | 4.0 | 8.0 | 0.00 | 0.40 | 0.40 | 86 | 1009.2 |
| 20260502182703 | 54 | 273 | 4.0 | 7.0 | 0.00 | 0.40 | 0.40 | 86 | 1009.3 |
| 20260502182018 | 54 | 275 | 3.0 | 7.0 | 0.00 | 0.40 | 0.40 | 86 | 1009.1 |
| 20260502180903 | 55 | 265 | 2.0 | 6.0 | 0.00 | 0.40 | 0.40 | 86 | 1009.2 |
| 20260502163603 | 55 | 261 | 3.0 | 7.0 | 0.00 | 0.40 | 0.40 | 83 | 1009.8 |
| 20260502162703 | 55 | 279 | 2.0 | 6.0 | 0.00 | 0.40 | 0.40 | 82 | 1009.9 |
| 20260502161803 | 55 | 270 | 2.0 | 7.0 | 0.00 | 0.40 | 0.40 | 81 | 1009.7 |
| 20260502160903 | 56 | 278 | 2.0 | 6.0 | 0.00 | 0.40 | 0.40 | 81 | 1009.9 |
| 20260502151803 | 57 | 230 | 1.0 | 4.0 | 0.00 | 0.40 | 0.40 | 79 | 1010.0 |
| 20260502150903 | 56 | 275 | 2.0 | 6.0 | 0.00 | 0.40 | 0.40 | 80 | 1010.1 |
| 20260502123603 | 54 | 273 | 2.0 | 7.0 | 0.00 | 0.39 | 0.39 | 91 | 1010.7 |
| 20260502122918 | 54 | 279 | 2.0 | 7.0 | 0.00 | 0.39 | 0.39 | 90 | 1010.7 |
| 20260502121803 | 54 | 279 | 2.0 | 4.0 | 0.00 | 0.39 | 0.39 | 91 | 1010.4 |
| 20260502120904 | 54 | 293 | 2.0 | 4.0 | 0.00 | 0.39 | 0.39 | 90 | 1010.7 |
| 20260502115403 | 55 | 290 | 1.0 | 3.0 | 0.00 | 0.39 | 0.39 | 90 | 1010.9 |
| 20260502113818 | 54 | 283 | 2.0 | 6.0 | 0.00 | 0.39 | 0.39 | 90 | 1010.6 |
| 20260502112703 | 55 | 297 | 2.0 | 4.0 | 0.00 | 0.39 | 0.39 | 89 | 1010.7 |
| 20260502111804 | 55 | 305 | 2.0 | 4.0 | 0.00 | 0.39 | 0.39 | 91 | 1010.8 |
| 20260502111118 | 55 | 311 | 2.0 | 4.0 | 0.00 | 0.39 | 0.39 | 91 | 1010.7 |
| 20260502110218 | 54 | 316 | 2.0 | 3.0 | 0.00 | 0.39 | 0.39 | 92 | 1010.8 |
| 20260502105403 | 54 | 311 | 2.0 | 4.0 | 0.00 | 0.39 | 0.39 | 94 | 1010.9 |
| 20260502104503 | 54 | 328 | 1.0 | 4.0 | 0.00 | 0.39 | 0.39 | 94 | 1011.0 |
| 20260502103603 | 53 | 325 | 1.0 | 3.0 | 0.00 | 0.39 | 0.39 | 95 | 1011.0 |
| 20260502102703 | 52 | 316 | 1.0 | 3.0 | 0.00 | 0.39 | 0.39 | 95 | 1011.0 |
| 20260502100903 | 52 | 330 | 1.0 | 2.0 | 0.00 | 0.39 | 0.39 | 95 | 1011.1 |
| 20260502090903 | 50 | 325 | 1.0 | 2.0 | 0.07 | 0.39 | 0.39 | 96 | 1011.4 |
| 20260502070903 | 49 | 0 | 0.0 | 0.0 | 0.22 | 0.28 | 0.28 | 95 | 1011.2 |
| 20260502070003 | 49 | 5 | 0.0 | 1.0 | 0.20 | 0.26 | 0.26 | 95 | 1011.4 |
| 20260502065403 | 49 | 7 | 0.0 | 1.0 | 0.17 | 0.23 | 0.23 | 95 | 1011.2 |
| 20260502064503 | 49 | 26 | 0.0 | 1.0 | 0.13 | 0.19 | 0.19 | 95 | 1011.4 |
| 20260502063603 | 49 | 26 | 0.0 | 1.0 | 0.12 | 0.18 | 0.18 | 95 | 1011.5 |
| 20260502062703 | 50 | 69 | 1.0 | 2.0 | 0.05 | 0.11 | 0.11 | 95 | 1011.4 |